| time (UTC) | temp C | wind direction | speed KPH | gust KPH | rain 1hr cm | rain 24hr cm | rain mn cm | humidity % | barometer mb |
| 20260506124507 | 7 | 226 | 1.6 | 12.9 | 0.00 | 0.13 | 0.00 | 72 | 1018.3 |
| 20260506123506 | 7 | 249 | 3.2 | 4.8 | 0.00 | 0.13 | 0.00 | 72 | 1018.3 |
| 20260506123010 | 7 | 204 | 3.2 | 11.3 | 0.00 | 0.13 | 0.00 | 72 | 1018.3 |
| 20260506122507 | 7 | 172 | 1.6 | 11.3 | 0.00 | 0.13 | 0.00 | 72 | 1018.3 |
| 20260506122008 | 7 | 247 | 3.2 | 11.3 | 0.00 | 0.13 | 0.00 | 72 | 1018.3 |
| 20260506121506 | 7 | 164 | 4.8 | 11.3 | 0.00 | 0.13 | 0.00 | 72 | 1018.3 |
| 20260506121009 | 7 | 168 | 1.6 | 12.9 | 0.00 | 0.05 | 0.00 | 72 | 1018.3 |
| 20260506120507 | 7 | 178 | 6.4 | 14.5 | 0.00 | 0.05 | 0.00 | 72 | 1018.3 |
| 20260506115507 | 7 | 150 | 4.8 | 12.9 | 0.00 | 0.05 | 0.00 | 72 | 1018.3 |
| 20260506113507 | 7 | 109 | 4.8 | 16.1 | 0.00 | 0.05 | 0.00 | 72 | 1018.3 |
| 20260506113008 | 7 | 169 | 4.8 | 16.1 | 0.00 | 0.05 | 0.00 | 72 | 1018.3 |
| 20260506112509 | 7 | 131 | 4.8 | 14.5 | 0.00 | 0.05 | 0.00 | 72 | 1018.3 |
| 20260506112011 | 7 | 155 | 9.7 | 14.5 | 0.00 | 0.05 | 0.00 | 72 | 1018.3 |
| 20260506111510 | 7 | 155 | 3.2 | 11.3 | 0.00 | 0.05 | 0.00 | 72 | 1018.3 |
| 20260506111012 | 7 | 251 | 3.2 | 11.3 | 0.00 | 0.05 | 0.00 | 72 | 1018.3 |
| 20260506110527 | 7 | 94 | 3.2 | 12.9 | 0.00 | 0.05 | 0.00 | 72 | 1018.3 |
| 20260506110007 | 7 | 146 | 3.2 | 14.5 | 0.00 | 0.05 | 0.00 | 72 | 1018.3 |
| 20260506105518 | 7 | 124 | 6.4 | 16.1 | 0.00 | 0.05 | 0.00 | 72 | 1018.3 |
| 20260506105009 | 7 | 109 | 9.7 | 16.1 | 0.00 | 0.05 | 0.00 | 72 | 1018.3 |
| 20260506104509 | 7 | 149 | 4.8 | 14.5 | 0.00 | 0.05 | 0.00 | 72 | 1018.3 |
| 20260506104008 | 7 | 137 | 4.8 | 14.5 | 0.00 | 0.05 | 0.00 | 72 | 1018.3 |
| 20260506103507 | 7 | 208 | 3.2 | 11.3 | 0.00 | 0.05 | 0.00 | 72 | 1018.3 |
| 20260506103010 | 7 | 181 | 4.8 | 11.3 | 0.00 | 0.05 | 0.00 | 72 | 1018.3 |
| 20260506102507 | 7 | 161 | 1.6 | 11.3 | 0.00 | 0.05 | 0.00 | 72 | 1018.3 |
| 20260506102008 | 7 | 208 | 4.8 | 11.3 | 0.00 | 0.05 | 0.00 | 72 | 1018.3 |
| 20260506101506 | 7 | 97 | 6.4 | 9.7 | 0.00 | 0.05 | 0.00 | 72 | 1018.3 |
| 20260506101009 | 7 | 92 | 3.2 | 9.7 | 0.00 | 0.05 | 0.00 | 72 | 1018.3 |
| 20260506100507 | 7 | 54 | 4.8 | 9.7 | 0.00 | 0.05 | 0.00 | 72 | 1018.3 |
| 20260506100007 | 7 | 233 | 3.2 | 12.9 | 0.00 | 0.05 | 0.00 | 72 | 1018.3 |
| 20260506095507 | 7 | 154 | 6.4 | 12.9 | 0.00 | 0.05 | 0.00 | 72 | 1018.3 |
| 20260506094507 | 7 | 172 | 4.8 | 9.7 | 0.00 | 0.05 | 0.00 | 72 | 1018.3 |
| 20260506093507 | 7 | 136 | 4.8 | 11.3 | 0.00 | 0.05 | 0.00 | 72 | 1018.3 |
| 20260506093006 | 7 | 162 | 3.2 | 11.3 | 0.00 | 0.05 | 0.00 | 72 | 1018.3 |
| 20260506092506 | 7 | 207 | 1.6 | 4.8 | 0.00 | 0.05 | 0.00 | 72 | 1018.3 |
| 20260506092006 | 7 | 285 | 0.0 | 4.8 | 0.00 | 0.05 | 0.00 | 72 | 1018.3 |
| 20260506091506 | 7 | 171 | 3.2 | 8.0 | 0.00 | 0.05 | 0.00 | 72 | 1018.3 |
| 20260506090007 | 7 | 165 | 3.2 | 4.8 | 0.00 | 0.05 | 0.00 | 72 | 1018.3 |
| 20260506085514 | 7 | 123 | 3.2 | 11.3 | 0.00 | 0.05 | 0.00 | 72 | 1018.3 |
| 20260506085006 | 7 | 123 | 4.8 | 11.3 | 0.00 | 0.05 | 0.00 | 72 | 1018.3 |
| 20260506084506 | 7 | 169 | 1.6 | 4.8 | 0.05 | 0.05 | 0.00 | 72 | 1018.3 |
| 20260506084007 | 7 | 108 | 3.2 | 9.7 | 0.00 | 0.05 | 0.00 | 72 | 1018.3 |
| 20260506083007 | 7 | 126 | 4.8 | 16.1 | 0.00 | 0.05 | 0.00 | 72 | 1018.3 |
| 20260506082507 | 7 | 119 | 6.4 | 16.1 | 0.00 | 0.05 | 0.00 | 72 | 1018.3 |
| 20260506082007 | 7 | 94 | 4.8 | 16.1 | 0.00 | 0.05 | 0.00 | 72 | 1018.3 |
| 20260506081507 | 7 | 123 | 4.8 | 9.7 | 0.00 | 0.05 | 0.00 | 72 | 1018.3 |
| 20260506081010 | 7 | 165 | 1.6 | 4.8 | 0.00 | 0.05 | 0.00 | 72 | 1018.3 |
| 20260506080507 | 7 | 135 | 1.6 | 4.8 | 0.00 | 0.05 | 0.00 | 72 | 1018.3 |
| 20260506073507 | 7 | 221 | 0.0 | 3.2 | 0.00 | 0.00 | 0.00 | 72 | 1018.3 |
| 20260506073006 | 7 | 223 | 0.0 | 3.2 | 0.00 | 0.00 | 0.00 | 72 | 1018.3 |
| 20260506072506 | 7 | 223 | 0.0 | 3.2 | 0.00 | 0.00 | 0.00 | 72 | 1018.3 |
| 20260506072006 | 7 | 229 | 1.6 | 3.2 | 0.00 | 0.00 | 0.00 | 72 | 1018.3 |
| 20260506071506 | 7 | 244 | 1.6 | 4.8 | 0.00 | 0.05 | 0.00 | 72 | 1018.3 |
| 20260506071007 | 7 | 212 | 1.6 | 4.8 | 0.00 | 0.05 | 0.00 | 72 | 1018.3 |
| 20260506061506 | 7 | 290 | 0.0 | 0.0 | 0.00 | 0.05 | 0.00 | 72 | 1018.3 |
| 20260506060506 | 7 | 290 | 0.0 | 0.0 | 0.00 | 0.08 | 0.00 | 72 | 1018.3 |
| 20260506051010 | 7 | 236 | 0.0 | 1.6 | 0.00 | 0.08 | 0.00 | 72 | 1018.3 |
| 20260506050508 | 7 | 235 | 0.0 | 0.0 | 0.00 | 0.08 | 0.00 | 72 | 1018.3 |
| 20260506045010 | 7 | 235 | 0.0 | 3.2 | 0.00 | 0.08 | 0.00 | 72 | 1018.3 |
| 20260506044507 | 7 | 235 | 0.0 | 3.2 | 0.00 | 0.08 | 0.00 | 72 | 1018.3 |
| 20260506044010 | 7 | 248 | 0.0 | 3.2 | 0.00 | 0.08 | 0.00 | 72 | 1018.3 |
| 20260506043507 | 7 | 262 | 1.6 | 3.2 | 0.00 | 0.08 | 0.00 | 72 | 1018.3 |
| 20260506043010 | 7 | 289 | 0.0 | 3.2 | 0.00 | 0.08 | 0.00 | 72 | 1018.3 |
| 20260506042506 | 7 | 289 | 0.0 | 3.2 | 0.00 | 0.08 | 0.00 | 72 | 1018.3 |
| 20260506042009 | 7 | 108 | 0.0 | 1.6 | 0.00 | 0.08 | 0.00 | 72 | 1018.3 |
| 20260506041507 | 7 | 108 | 0.0 | 9.7 | 0.00 | 0.08 | 0.00 | 72 | 1018.3 |
| 20260506040507 | 7 | 108 | 0.0 | 9.7 | 0.00 | 0.08 | 0.00 | 72 | 1018.3 |
| 20260506035507 | 7 | 108 | 0.0 | 9.7 | 0.00 | 0.08 | 0.00 | 72 | 1018.3 |
| 20260506035013 | 7 | 108 | 0.0 | 9.7 | 0.00 | 0.08 | 0.00 | 72 | 1018.3 |
| 20260506034011 | 7 | 108 | 0.0 | 9.7 | 0.00 | 0.08 | 0.00 | 72 | 1018.3 |
| 20260506033510 | 7 | 108 | 0.0 | 9.7 | 0.00 | 0.08 | 0.00 | 72 | 1018.3 |
| 20260506033011 | 7 | 93 | 0.0 | 9.7 | 0.00 | 0.08 | 0.00 | 72 | 1018.3 |
| 20260506031506 | 7 | 304 | 0.0 | 0.0 | 0.00 | 0.08 | 0.00 | 72 | 1018.3 |
| 20260506030509 | 7 | 304 | 0.0 | 4.8 | 0.00 | 0.08 | 0.00 | 72 | 1018.3 |
| 20260506030007 | 7 | 304 | 1.6 | 4.8 | 0.00 | 0.08 | 0.00 | 72 | 1018.3 |
| 20260506025507 | 7 | 300 | 1.6 | 9.7 | 0.00 | 0.08 | 0.00 | 72 | 1018.3 |
| 20260506025009 | 7 | 232 | 0.0 | 9.7 | 0.00 | 0.08 | 0.00 | 72 | 1018.3 |
| 20260506024507 | 7 | 259 | 0.0 | 3.2 | 0.00 | 0.08 | 0.00 | 72 | 1018.3 |
| 20260506024013 | 7 | 300 | 0.0 | 0.0 | 0.00 | 0.08 | 0.00 | 72 | 1018.3 |
| 20260506023509 | 7 | 300 | 0.0 | 0.0 | 0.00 | 0.08 | 0.00 | 72 | 1018.3 |
| 20260506023008 | 7 | 300 | 0.0 | 0.0 | 0.00 | 0.08 | 0.00 | 72 | 1018.3 |
| 20260506022508 | 7 | 300 | 0.0 | 0.0 | 0.00 | 0.08 | 0.00 | 72 | 1018.3 |
| 20260506022010 | 7 | 300 | 0.0 | 0.0 | 0.00 | 0.08 | 0.00 | 72 | 1018.3 |
| 20260506021506 | 7 | 300 | 0.0 | 0.0 | 0.00 | 0.08 | 0.00 | 72 | 1018.3 |
| 20260506021009 | 7 | 300 | 0.0 | 0.0 | 0.00 | 0.08 | 0.00 | 72 | 1018.3 |
| 20260506020507 | 7 | 300 | 0.0 | 0.0 | 0.00 | 0.08 | 0.00 | 72 | 1018.3 |
| 20260506020007 | 7 | 300 | 0.0 | 0.0 | 0.00 | 0.10 | 0.00 | 72 | 1018.3 |
| 20260506015013 | 7 | 300 | 0.0 | 0.0 | 0.00 | 0.10 | 0.00 | 72 | 1018.3 |
| 20260506014521 | 7 | 300 | 0.0 | 0.0 | 0.00 | 0.10 | 0.00 | 72 | 1018.3 |
| 20260506014041 | 7 | 300 | 0.0 | 0.0 | 0.00 | 0.10 | 0.00 | 72 | 1018.3 |
| 20260506013509 | 7 | 300 | 0.0 | 0.0 | 0.00 | 0.10 | 0.00 | 72 | 1018.3 |
| 20260506013209 | 7 | 300 | 0.0 | 0.0 | 0.00 | 0.10 | 0.00 | 72 | 1018.3 |
| 20260506012508 | 7 | 300 | 0.0 | 0.0 | 0.00 | 0.10 | 0.00 | 72 | 1018.3 |
| 20260506012009 | 7 | 300 | 0.0 | 0.0 | 0.00 | 0.10 | 0.00 | 72 | 1018.3 |
| 20260506011009 | 7 | 300 | 0.0 | 0.0 | 0.00 | 0.10 | 0.00 | 72 | 1018.3 |
| 20260506010507 | 7 | 300 | 0.0 | 0.0 | 0.00 | 0.10 | 0.00 | 72 | 1018.3 |
| 20260506010006 | 7 | 300 | 0.0 | 0.0 | 0.00 | 0.10 | 0.00 | 72 | 1018.3 |
| 20260506005506 | 7 | 300 | 0.0 | 0.0 | 0.00 | 0.10 | 0.00 | 72 | 1018.3 |
| 20260506005006 | 7 | 300 | 0.0 | 0.0 | 0.00 | 0.10 | 0.00 | 72 | 1018.3 |
| 20260506004011 | 7 | 300 | 0.0 | 0.0 | 0.00 | 0.10 | 0.00 | 72 | 1018.3 |
| 20260506003506 | 7 | 300 | 0.0 | 0.0 | 0.00 | 0.10 | 0.00 | 72 | 1018.3 |
| 20260506003006 | 7 | 300 | 0.0 | 0.0 | 0.00 | 0.10 | 0.00 | 72 | 1018.3 |
| 20260506002505 | 7 | 300 | 0.0 | 0.0 | 0.00 | 0.10 | 0.00 | 72 | 1018.3 |
| 20260506001505 | 7 | 300 | 0.0 | 3.2 | 0.00 | 0.10 | 0.00 | 72 | 1018.3 |
| 20260506001006 | 7 | 300 | 0.0 | 3.2 | 0.00 | 0.10 | 0.00 | 72 | 1018.3 |
| 20260506000506 | 7 | 300 | 1.6 | 3.2 | 0.00 | 0.10 | 0.00 | 72 | 1018.3 |
| 20260506000008 | 7 | 303 | 1.6 | 4.8 | 0.00 | 0.10 | 0.00 | 72 | 1018.3 |
| 20260505235507 | 7 | 299 | 1.6 | 4.8 | 0.00 | 0.10 | 0.00 | 72 | 1018.3 |
| 20260505234507 | 7 | 336 | 0.0 | 1.6 | 0.00 | 0.10 | 0.00 | 72 | 1018.3 |
| 20260505233007 | 7 | 347 | 1.6 | 4.8 | 0.00 | 0.13 | 0.00 | 72 | 1018.3 |
| 20260505232506 | 7 | 326 | 1.6 | 4.8 | 0.00 | 0.13 | 0.00 | 72 | 1018.3 |
| 20260505232006 | 7 | 326 | 1.6 | 4.8 | 0.00 | 0.13 | 0.00 | 72 | 1018.3 |
| 20260505231506 | 7 | 329 | 3.2 | 4.8 | 0.00 | 0.13 | 0.00 | 72 | 1018.3 |
| 20260505231008 | 7 | 331 | 3.2 | 4.8 | 0.00 | 0.13 | 0.00 | 72 | 1018.3 |
| 20260505230508 | 7 | 309 | 0.0 | 4.8 | 0.00 | 0.13 | 0.00 | 72 | 1018.3 |
| 20260505225507 | 7 | 267 | 1.6 | 3.2 | 0.00 | 0.15 | 0.05 | 72 | 1018.3 |
| 20260505225007 | 7 | 156 | 0.0 | 0.0 | 0.00 | 0.15 | 0.05 | 72 | 1018.3 |
| 20260505224506 | 7 | 156 | 0.0 | 0.0 | 0.00 | 0.15 | 0.05 | 72 | 1018.3 |
| 20260505223506 | 7 | 156 | 0.0 | 3.2 | 0.00 | 0.15 | 0.05 | 72 | 1018.3 |
| 20260505222507 | 7 | 65 | 1.6 | 4.8 | 0.00 | 0.15 | 0.05 | 72 | 1018.3 |
| 20260505221506 | 7 | 17 | 1.6 | 4.8 | 0.00 | 0.15 | 0.05 | 72 | 1018.3 |
| 20260505221007 | 7 | 24 | 1.6 | 4.8 | 0.00 | 0.15 | 0.05 | 72 | 1018.3 |
| 20260505220506 | 7 | 29 | 1.6 | 9.7 | 0.00 | 0.15 | 0.05 | 72 | 1018.3 |
| 20260505220006 | 7 | 29 | 1.6 | 9.7 | 0.00 | 0.15 | 0.05 | 72 | 1018.3 |
| 20260505215506 | 7 | 28 | 1.6 | 9.7 | 0.00 | 0.15 | 0.05 | 72 | 1018.3 |
| 20260505215006 | 7 | 108 | 0.0 | 0.0 | 0.00 | 0.15 | 0.05 | 72 | 1018.3 |
| 20260505214506 | 7 | 108 | 0.0 | 9.7 | 0.00 | 0.15 | 0.05 | 72 | 1018.3 |
| 20260505214006 | 7 | 108 | 0.0 | 9.7 | 0.00 | 0.15 | 0.05 | 72 | 1018.3 |
| 20260505213506 | 7 | 25 | 0.0 | 9.7 | 0.00 | 0.15 | 0.05 | 72 | 1018.3 |
| 20260505213006 | 7 | 12 | 0.0 | 0.0 | 0.00 | 0.15 | 0.05 | 72 | 1018.3 |
| 20260505212006 | 7 | 12 | 0.0 | 0.0 | 0.00 | 0.15 | 0.05 | 72 | 1018.3 |
| 20260505211506 | 7 | 12 | 0.0 | 0.0 | 0.00 | 0.15 | 0.05 | 72 | 1018.3 |
| 20260505211006 | 7 | 12 | 0.0 | 0.0 | 0.00 | 0.15 | 0.05 | 72 | 1018.3 |
| 20260505210506 | 7 | 12 | 0.0 | 1.6 | 0.00 | 0.15 | 0.05 | 72 | 1018.3 |
| 20260505210006 | 7 | 12 | 0.0 | 3.2 | 0.00 | 0.15 | 0.05 | 72 | 1018.3 |
| 20260505205506 | 7 | 12 | 0.0 | 3.2 | 0.00 | 0.15 | 0.05 | 72 | 1018.3 |
| 20260505205006 | 7 | 12 | 0.0 | 4.8 | 0.00 | 0.15 | 0.05 | 72 | 1018.3 |
| 20260505204506 | 7 | 13 | 1.6 | 4.8 | 0.00 | 0.15 | 0.05 | 72 | 1018.3 |
| 20260505204006 | 7 | 33 | 1.6 | 4.8 | 0.00 | 0.15 | 0.05 | 72 | 1018.3 |
| 20260505203006 | 7 | 35 | 1.6 | 4.8 | 0.00 | 0.15 | 0.05 | 72 | 1018.3 |
| 20260505201506 | 7 | 54 | 1.6 | 4.8 | 0.00 | 0.15 | 0.05 | 72 | 1018.3 |
| 20260505200506 | 7 | 47 | 1.6 | 9.7 | 0.00 | 0.15 | 0.05 | 72 | 1018.3 |
| 20260505200006 | 7 | 64 | 1.6 | 9.7 | 0.00 | 0.15 | 0.05 | 72 | 1018.3 |
| 20260505195506 | 7 | 59 | 3.2 | 4.8 | 0.00 | 0.15 | 0.05 | 72 | 1018.3 |
| 20260505195006 | 7 | 62 | 3.2 | 9.7 | 0.00 | 0.15 | 0.05 | 72 | 1018.3 |
| 20260505194506 | 7 | 50 | 1.6 | 9.7 | 0.00 | 0.15 | 0.05 | 72 | 1018.3 |
| 20260505194006 | 7 | 51 | 4.8 | 9.7 | 0.00 | 0.15 | 0.05 | 72 | 1018.3 |
| 20260505193007 | 7 | 55 | 3.2 | 9.7 | 0.00 | 0.15 | 0.05 | 72 | 1018.3 |
| 20260505192506 | 7 | 62 | 4.8 | 9.7 | 0.00 | 0.15 | 0.05 | 72 | 1018.3 |
| 20260505192006 | 7 | 69 | 4.8 | 9.7 | 0.00 | 0.15 | 0.05 | 72 | 1018.3 |
| 20260505191506 | 7 | 65 | 3.2 | 11.3 | 0.00 | 0.15 | 0.05 | 72 | 1018.3 |
| 20260505191006 | 7 | 57 | 4.8 | 11.3 | 0.00 | 0.15 | 0.05 | 72 | 1018.3 |
| 20260505190506 | 7 | 52 | 4.8 | 11.3 | 0.00 | 0.15 | 0.05 | 72 | 1018.3 |
| 20260505190006 | 7 | 65 | 3.2 | 9.7 | 0.00 | 0.15 | 0.05 | 72 | 1018.3 |
| 20260505185506 | 7 | 75 | 1.6 | 9.7 | 0.00 | 0.15 | 0.05 | 72 | 1018.3 |
| 20260505185006 | 7 | 96 | 3.2 | 9.7 | 0.00 | 0.15 | 0.05 | 72 | 1018.3 |
| 20260505184506 | 7 | 70 | 3.2 | 12.9 | 0.00 | 0.15 | 0.05 | 72 | 1018.3 |
| 20260505184006 | 7 | 75 | 4.8 | 12.9 | 0.00 | 0.15 | 0.05 | 72 | 1018.3 |
| 20260505183506 | 7 | 75 | 4.8 | 12.9 | 0.00 | 0.15 | 0.05 | 72 | 1018.3 |
| 20260505183006 | 7 | 70 | 4.8 | 9.7 | 0.00 | 0.15 | 0.05 | 72 | 1018.3 |
| 20260505182506 | 7 | 61 | 3.2 | 8.0 | 0.00 | 0.15 | 0.05 | 72 | 1018.3 |
| 20260505182006 | 7 | 95 | 3.2 | 8.0 | 0.00 | 0.15 | 0.05 | 72 | 1018.3 |
| 20260505181507 | 7 | 113 | 3.2 | 11.3 | 0.00 | 0.15 | 0.05 | 72 | 1018.3 |
| 20260505181006 | 7 | 130 | 4.8 | 11.3 | 0.00 | 0.15 | 0.05 | 72 | 1018.3 |
| 20260505180506 | 7 | 130 | 4.8 | 9.7 | 0.00 | 0.15 | 0.05 | 72 | 1018.3 |
| 20260505180006 | 7 | 96 | 4.8 | 4.8 | 0.00 | 0.15 | 0.05 | 72 | 1018.3 |
| 20260505175506 | 7 | 95 | 1.6 | 11.3 | 0.00 | 0.15 | 0.05 | 72 | 1018.3 |
| 20260505175006 | 7 | 111 | 4.8 | 12.9 | 0.00 | 0.15 | 0.05 | 72 | 1018.3 |
| 20260505174006 | 7 | 109 | 3.2 | 11.3 | 0.00 | 0.15 | 0.05 | 72 | 1018.3 |
| 20260505173507 | 7 | 110 | 8.0 | 12.9 | 0.00 | 0.15 | 0.05 | 72 | 1018.3 |
| 20260505173006 | 7 | 109 | 8.0 | 14.5 | 0.00 | 0.15 | 0.05 | 72 | 1018.3 |
| 20260505172506 | 7 | 112 | 9.7 | 14.5 | 0.00 | 0.15 | 0.05 | 72 | 1018.3 |
| 20260505172006 | 7 | 102 | 4.8 | 11.3 | 0.00 | 0.15 | 0.05 | 72 | 1018.3 |
| 20260505171006 | 7 | 97 | 3.2 | 14.5 | 0.00 | 0.15 | 0.05 | 72 | 1018.3 |
| 20260505170507 | 7 | 106 | 6.4 | 14.5 | 0.00 | 0.15 | 0.05 | 72 | 1018.3 |
| 20260505170005 | 7 | 69 | 4.8 | 14.5 | 0.00 | 0.15 | 0.05 | 72 | 1018.3 |
| 20260505165507 | 7 | 88 | 6.4 | 19.3 | 0.00 | 0.15 | 0.05 | 72 | 1018.3 |
| 20260505165006 | 7 | 112 | 4.8 | 19.3 | 0.00 | 0.15 | 0.05 | 72 | 1018.3 |
| 20260505164006 | 7 | 106 | 6.4 | 14.5 | 0.00 | 0.15 | 0.05 | 72 | 1018.3 |
| 20260505163506 | 7 | 86 | 6.4 | 14.5 | 0.00 | 0.15 | 0.05 | 72 | 1018.3 |
| 20260505163008 | 7 | 86 | 3.2 | 19.3 | 0.00 | 0.15 | 0.05 | 72 | 1018.3 |
| 20260505161006 | 7 | 116 | 8.0 | 12.9 | 0.00 | 0.15 | 0.05 | 72 | 1018.3 |
| 20260505160506 | 7 | 75 | 6.4 | 14.5 | 0.00 | 0.15 | 0.05 | 72 | 1018.3 |
| 20260505152506 | 7 | 111 | 9.7 | 19.3 | 0.00 | 0.15 | 0.05 | 72 | 1018.3 |
| 20260505152006 | 7 | 120 | 12.9 | 19.3 | 0.00 | 0.15 | 0.05 | 72 | 1018.3 |
| 20260505151505 | 7 | 109 | 11.3 | 19.3 | 0.00 | 0.15 | 0.05 | 72 | 1018.3 |
| 20260505151006 | 7 | 125 | 9.7 | 19.3 | 0.00 | 0.15 | 0.05 | 72 | 1018.3 |
| 20260505140506 | 7 | 119 | 9.7 | 19.3 | 0.00 | 0.20 | 0.05 | 72 | 1018.3 |
| 20260505125006 | 7 | 121 | 8.0 | 19.3 | 0.00 | 0.20 | 0.05 | 72 | 1018.3 |